| time (UTC) | temp C | wind direction | speed KPH | gust KPH | rain 1hr cm | rain 24hr cm | rain mn cm | humidity % | barometer mb |
| 20260901220342 | 35 | 257 | 8.0 | 11.3 | 0.00 | 0.00 | 0.00 | 56 | 1014.2 |
| 20260901215841 | 35 | 318 | 6.4 | 9.7 | 0.00 | 0.00 | 0.00 | 57 | 1014.2 |
| 20260901215341 | 35 | 264 | 9.7 | 11.3 | 0.00 | 0.00 | 0.00 | 56 | 1014.0 |
| 20260901214839 | 35 | 264 | 4.8 | 6.4 | 0.00 | 0.00 | 0.00 | 57 | 1014.1 |
| 20260901214338 | 34 | 294 | 4.8 | 6.4 | 0.00 | 0.00 | 0.00 | 58 | 1014.2 |
| 20260901213833 | 35 | 260 | 9.7 | 11.3 | 0.00 | 0.00 | 0.00 | 58 | 1014.1 |
| 20260901213333 | 34 | 321 | 3.2 | 4.8 | 0.00 | 0.00 | 0.00 | 58 | 1014.2 |
| 20260901212827 | 34 | 266 | 6.4 | 11.3 | 0.00 | 0.00 | 0.00 | 57 | 1014.2 |
| 20260901212323 | 34 | 311 | 3.2 | 4.8 | 0.00 | 0.00 | 0.00 | 57 | 1014.1 |
| 20260901211819 | 35 | 263 | 8.0 | 11.3 | 0.00 | 0.00 | 0.00 | 58 | 1014.3 |
| 20260901211315 | 34 | 270 | 6.4 | 6.4 | 0.00 | 0.00 | 0.00 | 57 | 1014.3 |
| 20260901210810 | 35 | 268 | 3.2 | 4.8 | 0.00 | 0.00 | 0.00 | 56 | 1014.3 |
| 20260901210306 | 35 | 235 | 9.7 | 12.9 | 0.00 | 0.00 | 0.00 | 56 | 1014.4 |
| 20260901205802 | 34 | 291 | 12.9 | 12.9 | 0.00 | 0.00 | 0.00 | 58 | 1014.4 |
| 20260901205305 | 34 | 244 | 14.5 | 16.1 | 0.00 | 0.00 | 0.00 | 58 | 1014.6 |
| 20260901204757 | 34 | 270 | 11.3 | 14.5 | 0.00 | 0.00 | 0.00 | 58 | 1014.6 |
| 20260901204253 | 35 | 241 | 9.7 | 12.9 | 0.00 | 0.00 | 0.00 | 56 | 1014.4 |
| 20260901203754 | 35 | 222 | 3.2 | 4.8 | 0.00 | 0.00 | 0.00 | 56 | 1014.7 |
| 20260901203248 | 34 | 266 | 12.9 | 14.5 | 0.00 | 0.00 | 0.00 | 59 | 1014.6 |
| 20260901202748 | 34 | 271 | 4.8 | 4.8 | 0.00 | 0.00 | 0.00 | 58 | 1014.5 |
| 20260901202243 | 34 | 271 | 8.0 | 9.7 | 0.00 | 0.00 | 0.00 | 57 | 1014.6 |
| 20260901201739 | 35 | 253 | 14.5 | 17.7 | 0.00 | 0.00 | 0.00 | 58 | 1014.6 |
| 20260901201238 | 34 | 289 | 9.7 | 11.3 | 0.00 | 0.00 | 0.00 | 58 | 1014.6 |
| 20260901200733 | 33 | 266 | 9.7 | 11.3 | 0.00 | 0.00 | 0.00 | 62 | 1014.5 |
| 20260901200228 | 34 | 210 | 11.3 | 14.5 | 0.00 | 0.00 | 0.00 | 60 | 1014.6 |
| 20260901195726 | 35 | 271 | 12.9 | 17.7 | 0.00 | 0.00 | 0.00 | 61 | 1014.7 |
| 20260901195220 | 34 | 271 | 14.5 | 17.7 | 0.00 | 0.00 | 0.00 | 61 | 1014.8 |
| 20260901194716 | 34 | 210 | 12.9 | 14.5 | 0.00 | 0.00 | 0.00 | 61 | 1014.4 |
| 20260901194210 | 33 | 262 | 12.9 | 16.1 | 0.00 | 0.00 | 0.00 | 63 | 1014.9 |
| 20260901193707 | 34 | 246 | 8.0 | 9.7 | 0.00 | 0.00 | 0.00 | 62 | 1014.8 |
| 20260901193206 | 34 | 229 | 6.4 | 9.7 | 0.00 | 0.00 | 0.00 | 61 | 1014.7 |
| 20260901192701 | 34 | 255 | 6.4 | 6.4 | 0.00 | 0.00 | 0.00 | 62 | 1014.8 |
| 20260901192156 | 35 | 211 | 9.7 | 11.3 | 0.00 | 0.00 | 0.00 | 61 | 1014.9 |
| 20260901191651 | 34 | 270 | 4.8 | 4.8 | 0.00 | 0.00 | 0.00 | 62 | 1015.0 |
| 20260901191142 | 33 | 265 | 9.7 | 12.9 | 0.00 | 0.00 | 0.00 | 63 | 1015.0 |
| 20260901190638 | 35 | 310 | 8.0 | 11.3 | 0.00 | 0.00 | 0.00 | 61 | 1015.0 |
| 20260901190137 | 34 | 312 | 8.0 | 11.3 | 0.00 | 0.00 | 0.00 | 62 | 1015.0 |
| 20260901185636 | 33 | 268 | 6.4 | 6.4 | 0.00 | 0.00 | 0.00 | 60 | 1015.0 |
| 20260901185134 | 34 | 256 | 8.0 | 11.3 | 0.00 | 0.00 | 0.00 | 61 | 1015.0 |
| 20260901184630 | 35 | 299 | 3.2 | 4.8 | 0.00 | 0.00 | 0.00 | 60 | 1015.1 |
| 20260901184125 | 34 | 351 | 1.6 | 1.6 | 0.00 | 0.00 | 0.00 | 61 | 1015.2 |
| 20260901183620 | 34 | 8 | 4.8 | 4.8 | 0.00 | 0.00 | 0.00 | 61 | 1015.3 |
| 20260901183115 | 33 | 261 | 4.8 | 9.7 | 0.00 | 0.00 | 0.00 | 63 | 1015.1 |
| 20260901182612 | 33 | 276 | 8.0 | 11.3 | 0.00 | 0.00 | 0.00 | 65 | 1015.3 |
| 20260901182111 | 33 | 221 | 6.4 | 9.7 | 0.00 | 0.00 | 0.00 | 64 | 1015.1 |
| 20260901181611 | 33 | 194 | 4.8 | 6.4 | 0.00 | 0.00 | 0.00 | 64 | 1015.2 |
| 20260901181110 | 33 | 249 | 9.7 | 11.3 | 0.00 | 0.00 | 0.00 | 64 | 1015.1 |
| 20260901180609 | 33 | 324 | 4.8 | 6.4 | 0.00 | 0.00 | 0.00 | 66 | 1015.3 |
| 20260901180105 | 33 | 258 | 3.2 | 4.8 | 0.00 | 0.00 | 0.00 | 66 | 1015.4 |
| 20260901175603 | 33 | 5 | 6.4 | 6.4 | 0.00 | 0.00 | 0.00 | 67 | 1015.5 |
| 20260901175058 | 33 | 205 | 8.0 | 9.7 | 0.00 | 0.00 | 0.00 | 67 | 1015.4 |
| 20260901174554 | 32 | 304 | 4.8 | 6.4 | 0.00 | 0.00 | 0.00 | 69 | 1015.5 |
| 20260901174049 | 32 | 175 | 6.4 | 6.4 | 0.00 | 0.00 | 0.00 | 67 | 1015.5 |
| 20260901173544 | 32 | 320 | 4.8 | 9.7 | 0.00 | 0.00 | 0.00 | 68 | 1015.6 |
| 20260901173040 | 32 | 243 | 6.4 | 6.4 | 0.00 | 0.00 | 0.00 | 68 | 1015.5 |
| 20260901172535 | 32 | 289 | 3.2 | 4.8 | 0.00 | 0.00 | 0.00 | 67 | 1015.6 |
| 20260901172033 | 33 | 253 | 16.1 | 17.7 | 0.00 | 0.00 | 0.00 | 65 | 1015.7 |
| 20260901171533 | 32 | 217 | 3.2 | 6.4 | 0.00 | 0.00 | 0.00 | 69 | 1015.8 |
| 20260901171031 | 32 | 282 | 8.0 | 11.3 | 0.00 | 0.00 | 0.00 | 70 | 1015.7 |
| 20260901170525 | 32 | 255 | 14.5 | 14.5 | 0.00 | 0.00 | 0.00 | 71 | 1015.7 |
| 20260901170020 | 32 | 230 | 11.3 | 11.3 | 0.00 | 0.00 | 0.00 | 70 | 1015.7 |
| 20260901165514 | 32 | 247 | 4.8 | 6.4 | 0.00 | 0.00 | 0.00 | 71 | 1015.6 |
| 20260901165010 | 32 | 295 | 1.6 | 3.2 | 0.00 | 0.00 | 0.00 | 71 | 1015.7 |
| 20260901164505 | 32 | 355 | 6.4 | 6.4 | 0.00 | 0.00 | 0.00 | 74 | 1015.7 |
| 20260901164000 | 32 | 311 | 1.6 | 3.2 | 0.00 | 0.00 | 0.00 | 74 | 1015.8 |
| 20260901163456 | 31 | 215 | 3.2 | 4.8 | 0.00 | 0.00 | 0.00 | 73 | 1015.6 |
| 20260901162954 | 31 | 256 | 4.8 | 6.4 | 0.00 | 0.00 | 0.00 | 73 | 1015.9 |
| 20260901162449 | 31 | 261 | 6.4 | 6.4 | 0.00 | 0.00 | 0.00 | 74 | 1015.8 |
| 20260901161948 | 31 | 222 | 8.0 | 11.3 | 0.00 | 0.00 | 0.00 | 75 | 1015.7 |
| 20260901161448 | 31 | 230 | 8.0 | 9.7 | 0.00 | 0.00 | 0.00 | 75 | 1015.7 |
| 20260901160943 | 31 | 285 | 3.2 | 3.2 | 0.00 | 0.00 | 0.00 | 74 | 1015.8 |
| 20260901160439 | 31 | 202 | 1.6 | 3.2 | 0.00 | 0.00 | 0.00 | 74 | 1015.8 |
| 20260901155938 | 31 | 264 | 4.8 | 4.8 | 0.00 | 0.00 | 0.00 | 77 | 1015.9 |
| 20260901155433 | 31 | 247 | 6.4 | 6.4 | 0.00 | 0.00 | 0.00 | 77 | 1015.7 |
| 20260901154930 | 31 | 340 | 1.6 | 3.2 | 0.00 | 0.00 | 0.00 | 77 | 1015.6 |
| 20260901154429 | 31 | 260 | 3.2 | 3.2 | 0.00 | 0.00 | 0.00 | 76 | 1015.6 |
| 20260901153923 | 31 | 200 | 4.8 | 4.8 | 0.00 | 0.00 | 0.00 | 78 | 1015.9 |
| 20260901153424 | 30 | 299 | 4.8 | 4.8 | 0.00 | 0.00 | 0.00 | 78 | 1015.8 |
| 20260901152917 | 30 | 192 | 6.4 | 6.4 | 0.00 | 0.00 | 0.00 | 81 | 1016.0 |
| 20260901152412 | 29 | 211 | 4.8 | 4.8 | 0.00 | 0.00 | 0.00 | 81 | 1015.7 |
| 20260901151912 | 28 | 216 | 4.8 | 6.4 | 0.00 | 0.00 | 0.00 | 83 | 1015.7 |
| 20260901151407 | 29 | 13 | 4.8 | 4.8 | 0.00 | 0.00 | 0.00 | 81 | 1015.8 |
| 20260901150906 | 28 | 261 | 4.8 | 4.8 | 0.00 | 0.00 | 0.00 | 84 | 1015.9 |
| 20260901150404 | 28 | 262 | 6.4 | 6.4 | 0.00 | 0.00 | 0.00 | 84 | 1015.9 |
| 20260901145902 | 27 | 245 | 3.2 | 3.2 | 0.00 | 0.00 | 0.00 | 84 | 1015.4 |
| 20260901145402 | 27 | 284 | 6.4 | 9.7 | 0.00 | 0.00 | 0.00 | 87 | 1015.7 |
| 20260901144902 | 27 | 226 | 6.4 | 6.4 | 0.00 | 0.00 | 0.00 | 86 | 1015.6 |
| 20260901144357 | 28 | 225 | 3.2 | 3.2 | 0.00 | 0.00 | 0.00 | 81 | 1015.9 |
| 20260901143853 | 27 | 316 | 1.6 | 1.6 | 0.00 | 0.00 | 0.00 | 84 | 1015.8 |
| 20260901143349 | 26 | 325 | 1.6 | 3.2 | 0.00 | 0.00 | 0.00 | 88 | 1016.0 |
| 20260901142845 | 27 | 304 | 3.2 | 4.8 | 0.00 | 0.00 | 0.00 | 84 | 1016.0 |
| 20260901142344 | 26 | 325 | 0.0 | 1.6 | 0.00 | 0.00 | 0.00 | 87 | 1016.0 |
| 20260901141839 | 26 | 340 | 0.0 | 0.0 | 0.00 | 0.00 | 0.00 | 89 | 1016.1 |
| 20260901141334 | 26 | 350 | 1.6 | 1.6 | 0.00 | 0.00 | 0.00 | 89 | 1016.0 |
| 20260901140833 | 25 | 329 | 1.6 | 1.6 | 0.00 | 0.00 | 0.00 | 90 | 1016.2 |
| 20260901140331 | 25 | 299 | 3.2 | 3.2 | 0.00 | 0.00 | 0.00 | 90 | 1016.0 |
| 20260901135826 | 25 | 331 | 1.6 | 3.2 | 0.00 | 0.00 | 0.00 | 91 | 1016.2 |
| 20260901135322 | 25 | 280 | 3.2 | 4.8 | 0.00 | 0.00 | 0.00 | 91 | 1016.2 |
| 20260901134818 | 25 | 271 | 4.8 | 4.8 | 0.00 | 0.00 | 0.00 | 90 | 1016.1 |
| 20260901134313 | 25 | 320 | 1.6 | 3.2 | 0.00 | 0.00 | 0.00 | 90 | 1016.2 |
| 20260901133807 | 25 | 335 | 1.6 | 3.2 | 0.00 | 0.00 | 0.00 | 90 | 1016.3 |
| 20260901133306 | 25 | 326 | 1.6 | 1.6 | 0.00 | 0.00 | 0.00 | 90 | 1016.1 |
| 20260901132805 | 25 | 340 | 1.6 | 1.6 | 0.00 | 0.00 | 0.00 | 90 | 1016.1 |
| 20260901132300 | 25 | 318 | 1.6 | 1.6 | 0.00 | 0.00 | 0.00 | 90 | 1016.0 |
| 20260901131759 | 25 | 221 | 1.6 | 3.2 | 0.00 | 0.00 | 0.00 | 89 | 1016.0 |
| 20260901131259 | 25 | 324 | 1.6 | 1.6 | 0.00 | 0.00 | 0.00 | 89 | 1015.9 |
| 20260901130754 | 25 | 345 | 0.0 | 0.0 | 0.00 | 0.00 | 0.00 | 89 | 1016.0 |
| 20260901130249 | 24 | 345 | 0.0 | 0.0 | 0.00 | 0.00 | 0.00 | 90 | 1016.1 |
| 20260901125747 | 24 | 331 | 1.6 | 1.6 | 0.00 | 0.00 | 0.00 | 92 | 1016.1 |
| 20260901125242 | 23 | 324 | 1.6 | 1.6 | 0.00 | 0.00 | 0.00 | 93 | 1016.1 |
| 20260901124741 | 23 | 350 | 0.0 | 0.0 | 0.00 | 0.00 | 0.00 | 94 | 1016.1 |
| 20260901124236 | 23 | 292 | 1.6 | 1.6 | 0.00 | 0.00 | 0.00 | 94 | 1016.1 |
| 20260901123736 | 23 | 295 | 1.6 | 3.2 | 0.00 | 0.00 | 0.00 | 94 | 1016.0 |
| 20260901123231 | 23 | 231 | 3.2 | 4.8 | 0.00 | 0.00 | 0.00 | 94 | 1016.0 |
| 20260901122730 | 23 | 334 | 1.6 | 1.6 | 0.00 | 0.00 | 0.00 | 95 | 1016.0 |
| 20260901122224 | 23 | 336 | 1.6 | 1.6 | 0.00 | 0.00 | 0.00 | 95 | 1016.1 |
| 20260901121719 | 23 | 328 | 1.6 | 1.6 | 0.00 | 0.00 | 0.00 | 95 | 1015.8 |
| 20260901121214 | 23 | 313 | 1.6 | 1.6 | 0.00 | 0.00 | 0.00 | 95 | 1015.9 |
| 20260901120714 | 23 | 290 | 1.6 | 1.6 | 0.00 | 0.00 | 0.00 | 95 | 1016.1 |
| 20260901120209 | 22 | 332 | 0.0 | 0.0 | 0.00 | 0.00 | 0.00 | 95 | 1015.7 |
| 20260901115704 | 22 | 345 | 0.0 | 0.0 | 0.00 | 0.00 | 0.00 | 95 | 1015.8 |
| 20260901115200 | 22 | 337 | 0.0 | 0.0 | 0.00 | 0.00 | 0.00 | 96 | 1015.7 |
| 20260901114657 | 22 | 344 | 0.0 | 0.0 | 0.00 | 0.00 | 0.00 | 97 | 1015.7 |
| 20260901114156 | 22 | 316 | 1.6 | 1.6 | 0.00 | 0.00 | 0.00 | 97 | 1015.5 |
| 20260901113655 | 22 | 344 | 0.0 | 0.0 | 0.00 | 0.00 | 0.00 | 97 | 1015.6 |
| 20260901113150 | 22 | 349 | 0.0 | 0.0 | 0.00 | 0.00 | 0.00 | 96 | 1015.4 |
| 20260901112644 | 22 | 351 | 1.6 | 1.6 | 0.00 | 0.00 | 0.00 | 96 | 1015.3 |
| 20260901112139 | 22 | 341 | 0.0 | 0.0 | 0.00 | 0.00 | 0.00 | 96 | 1015.5 |
| 20260901111638 | 22 | 341 | 0.0 | 0.0 | 0.00 | 0.00 | 0.00 | 96 | 1015.4 |
| 20260901111137 | 22 | 348 | 0.0 | 0.0 | 0.00 | 0.00 | 0.00 | 95 | 1015.3 |
| 20260901110633 | 22 | 353 | 0.0 | 0.0 | 0.00 | 0.00 | 0.00 | 95 | 1015.3 |
| 20260901110128 | 22 | 344 | 0.0 | 0.0 | 0.00 | 0.00 | 0.00 | 95 | 1015.3 |
| 20260901105624 | 22 | 344 | 0.0 | 0.0 | 0.00 | 0.00 | 0.00 | 95 | 1015.2 |
| 20260901105123 | 22 | 341 | 0.0 | 0.0 | 0.00 | 0.00 | 0.00 | 95 | 1015.1 |
| 20260901104619 | 22 | 339 | 0.0 | 0.0 | 0.00 | 0.00 | 0.00 | 96 | 1015.1 |
| 20260901104114 | 22 | 336 | 1.6 | 1.6 | 0.00 | 0.00 | 0.00 | 95 | 1015.3 |
| 20260901103609 | 22 | 333 | 0.0 | 0.0 | 0.00 | 0.00 | 0.00 | 96 | 1015.1 |
| 20260901103104 | 22 | 347 | 0.0 | 0.0 | 0.00 | 0.00 | 0.00 | 96 | 1015.0 |
| 20260901102559 | 23 | 347 | 0.0 | 1.6 | 0.00 | 0.00 | 0.00 | 96 | 1014.9 |
| 20260901102054 | 22 | 326 | 1.6 | 1.6 | 0.00 | 0.00 | 0.00 | 96 | 1015.0 |
| 20260901101549 | 22 | 334 | 0.0 | 0.0 | 0.00 | 0.00 | 0.00 | 96 | 1014.9 |
| 20260901101048 | 22 | 334 | 0.0 | 0.0 | 0.00 | 0.00 | 0.00 | 96 | 1014.7 |
| 20260901100543 | 22 | 339 | 0.0 | 0.0 | 0.00 | 0.00 | 0.00 | 96 | 1014.7 |
| 20260901100043 | 22 | 338 | 0.0 | 0.0 | 0.00 | 0.00 | 0.00 | 96 | 1014.8 |
| 20260901095541 | 22 | 340 | 0.0 | 0.0 | 0.00 | 0.00 | 0.00 | 96 | 1014.8 |
| 20260901095039 | 22 | 340 | 0.0 | 0.0 | 0.00 | 0.00 | 0.00 | 96 | 1014.8 |
| 20260901094534 | 22 | 353 | 1.6 | 1.6 | 0.00 | 0.00 | 0.00 | 97 | 1014.8 |
| 20260901094033 | 22 | 339 | 0.0 | 1.6 | 0.00 | 0.00 | 0.00 | 97 | 1014.9 |
| 20260901093528 | 22 | 339 | 0.0 | 0.0 | 0.00 | 0.00 | 0.00 | 97 | 1014.8 |
| 20260901093023 | 22 | 338 | 1.6 | 1.6 | 0.00 | 0.00 | 0.00 | 96 | 1014.7 |
| 20260901092519 | 22 | 341 | 1.6 | 1.6 | 0.00 | 0.00 | 0.00 | 96 | 1014.8 |
| 20260901092015 | 22 | 350 | 1.6 | 1.6 | 0.00 | 0.00 | 0.00 | 96 | 1014.9 |
| 20260901091510 | 22 | 8 | 1.6 | 1.6 | 0.00 | 0.00 | 0.00 | 95 | 1014.8 |
| 20260901091009 | 23 | 349 | 0.0 | 0.0 | 0.00 | 0.00 | 0.00 | 95 | 1014.7 |
| 20260901090509 | 23 | 326 | 0.0 | 1.6 | 0.00 | 0.00 | 0.00 | 95 | 1014.8 |
| 20260901090005 | 23 | 326 | 1.6 | 1.6 | 0.00 | 0.00 | 0.00 | 95 | 1014.8 |
| 20260901085500 | 23 | 346 | 0.0 | 0.0 | 0.00 | 0.00 | 0.00 | 96 | 1014.8 |
| 20260901084956 | 23 | 349 | 0.0 | 0.0 | 0.00 | 0.00 | 0.00 | 95 | 1014.6 |
| 20260901084452 | 23 | 336 | 0.0 | 0.0 | 0.00 | 0.00 | 0.00 | 95 | 1014.6 |
| 20260901083948 | 23 | 339 | 1.6 | 1.6 | 0.00 | 0.00 | 0.00 | 95 | 1014.5 |
| 20260901083443 | 23 | 339 | 0.0 | 0.0 | 0.00 | 0.00 | 0.00 | 95 | 1014.6 |
| 20260901082941 | 23 | 337 | 1.6 | 1.6 | 0.00 | 0.00 | 0.00 | 95 | 1014.6 |
| 20260901082436 | 23 | 352 | 1.6 | 1.6 | 0.00 | 0.00 | 0.00 | 95 | 1014.7 |
| 20260901081931 | 23 | 352 | 0.0 | 0.0 | 0.00 | 0.00 | 0.00 | 95 | 1014.7 |
| 20260901081426 | 23 | 349 | 0.0 | 0.0 | 0.00 | 0.00 | 0.00 | 95 | 1014.7 |
| 20260901080921 | 23 | 349 | 0.0 | 0.0 | 0.00 | 0.00 | 0.00 | 94 | 1014.7 |
| 20260901080420 | 23 | 337 | 0.0 | 0.0 | 0.00 | 0.00 | 0.00 | 94 | 1014.7 |
| 20260901075916 | 23 | 326 | 1.6 | 1.6 | 0.00 | 0.00 | 0.00 | 94 | 1014.7 |
| 20260901075416 | 23 | 302 | 3.2 | 3.2 | 0.00 | 0.00 | 0.00 | 94 | 1014.9 |
| 20260901074915 | 23 | 336 | 0.0 | 0.0 | 0.00 | 0.00 | 0.00 | 94 | 1014.7 |
| 20260901074410 | 23 | 331 | 1.6 | 1.6 | 0.00 | 0.00 | 0.00 | 94 | 1014.8 |
| 20260901073906 | 23 | 345 | 0.0 | 0.0 | 0.00 | 0.00 | 0.00 | 94 | 1014.8 |
| 20260901073402 | 23 | 345 | 0.0 | 0.0 | 0.00 | 0.00 | 0.00 | 94 | 1014.8 |
| 20260901072857 | 23 | 345 | 0.0 | 0.0 | 0.00 | 0.00 | 0.00 | 94 | 1014.8 |
| 20260901072357 | 23 | 344 | 0.0 | 0.0 | 0.00 | 0.00 | 0.00 | 94 | 1014.8 |
| 20260901071852 | 23 | 345 | 0.0 | 1.6 | 0.00 | 0.00 | 0.00 | 94 | 1014.8 |
| 20260901071351 | 23 | 355 | 0.0 | 0.0 | 0.00 | 0.00 | 0.00 | 94 | 1014.7 |
| 20260901070850 | 23 | 355 | 0.0 | 0.0 | 0.00 | 0.00 | 0.00 | 93 | 1014.8 |
| 20260901070346 | 23 | 354 | 0.0 | 0.0 | 0.00 | 0.00 | 0.00 | 93 | 1014.7 |
| 20260901065844 | 23 | 355 | 0.0 | 0.0 | 0.00 | 0.00 | 0.00 | 93 | 1014.6 |
| 20260901065339 | 23 | 357 | 0.0 | 0.0 | 0.00 | 0.00 | 0.00 | 94 | 1014.7 |
| 20260901064835 | 23 | 338 | 0.0 | 0.0 | 0.00 | 0.00 | 0.00 | 94 | 1014.7 |
| 20260901064331 | 23 | 338 | 0.0 | 0.0 | 0.00 | 0.00 | 0.00 | 94 | 1014.7 |
| 20260901063829 | 23 | 345 | 0.0 | 0.0 | 0.00 | 0.00 | 0.00 | 93 | 1014.9 |
| 20260901063325 | 24 | 345 | 0.0 | 0.0 | 0.00 | 0.00 | 0.00 | 92 | 1015.1 |
| 20260901062821 | 24 | 345 | 0.0 | 0.0 | 0.00 | 0.00 | 0.00 | 91 | 1014.9 |
| 20260901062317 | 25 | 337 | 0.0 | 0.0 | 0.00 | 0.00 | 0.00 | 91 | 1014.8 |
| 20260901061812 | 25 | 338 | 0.0 | 0.0 | 0.00 | 0.00 | 0.00 | 91 | 1014.8 |
| 20260901061312 | 24 | 345 | 1.6 | 1.6 | 0.00 | 0.00 | 0.00 | 91 | 1015.0 |
| 20260901060808 | 24 | 349 | 0.0 | 0.0 | 0.00 | 0.00 | 0.00 | 92 | 1014.9 |
| 20260901060303 | 25 | 346 | 0.0 | 0.0 | 0.00 | 0.00 | 0.00 | 91 | 1014.8 |
| 20260901055758 | 25 | 336 | 0.0 | 0.0 | 0.00 | 0.00 | 0.00 | 91 | 1014.9 |
| 20260901055254 | 25 | 341 | 0.0 | 0.0 | 0.00 | 0.00 | 0.00 | 90 | 1014.9 |
| 20260901054751 | 25 | 334 | 0.0 | 0.0 | 0.00 | 0.00 | 0.00 | 91 | 1014.9 |
| 20260901054247 | 25 | 335 | 0.0 | 1.6 | 0.00 | 0.00 | 0.00 | 91 | 1014.9 |
| 20260901053743 | 25 | 333 | 0.0 | 1.6 | 0.00 | 0.00 | 0.00 | 91 | 1014.8 |
| 20260901053243 | 25 | 339 | 0.0 | 0.0 | 0.00 | 0.00 | 0.00 | 91 | 1014.8 |
| 20260901052739 | 25 | 348 | 0.0 | 0.0 | 0.00 | 0.00 | 0.00 | 90 | 1014.6 |
| 20260901052234 | 25 | 341 | 0.0 | 0.0 | 0.00 | 0.00 | 0.00 | 90 | 1014.6 |
| 20260901051733 | 25 | 341 | 1.6 | 1.6 | 0.00 | 0.00 | 0.00 | 91 | 1014.3 |
| 20260901051228 | 24 | 337 | 0.0 | 1.6 | 0.00 | 0.00 | 0.00 | 93 | 1014.5 |
| 20260901050724 | 24 | 351 | 0.0 | 0.0 | 0.00 | 0.00 | 0.00 | 93 | 1014.6 |
| 20260901050219 | 24 | 351 | 0.0 | 0.0 | 0.00 | 0.00 | 0.00 | 92 | 1014.4 |
| 20260901045714 | 25 | 351 | 0.0 | 0.0 | 0.00 | 0.00 | 0.00 | 92 | 1014.5 |
| 20260901045209 | 25 | 347 | 0.0 | 0.0 | 0.00 | 0.00 | 0.00 | 91 | 1014.5 |
| 20260901044704 | 25 | 340 | 1.6 | 1.6 | 0.00 | 0.00 | 0.00 | 90 | 1014.5 |
| 20260901044200 | 25 | 345 | 0.0 | 0.0 | 0.00 | 0.00 | 0.00 | 88 | 1014.6 |
| 20260901043655 | 25 | 333 | 0.0 | 0.0 | 0.00 | 0.00 | 0.00 | 87 | 1014.5 |
| 20260901043151 | 26 | 338 | 0.0 | 0.0 | 0.00 | 0.00 | 0.00 | 87 | 1014.4 |
| 20260901042650 | 25 | 303 | 1.6 | 1.6 | 0.00 | 0.00 | 0.00 | 87 | 1014.3 |
| 20260901042145 | 25 | 330 | 1.6 | 1.6 | 0.00 | 0.00 | 0.00 | 87 | 1014.2 |
| 20260901041641 | 26 | 340 | 0.0 | 0.0 | 0.00 | 0.00 | 0.00 | 87 | 1014.3 |
| 20260901041136 | 26 | 334 | 3.2 | 4.8 | 0.00 | 0.00 | 0.00 | 87 | 1014.1 |
| 20260901040636 | 26 | 289 | 3.2 | 4.8 | 0.00 | 0.00 | 0.00 | 87 | 1014.3 |
| 20260901040135 | 26 | 328 | 3.2 | 3.2 | 0.00 | 0.00 | 0.00 | 86 | 1014.3 |
| 20260901035633 | 26 | 265 | 3.2 | 3.2 | 0.00 | 0.00 | 0.00 | 86 | 1014.3 |
| 20260901035132 | 26 | 284 | 3.2 | 4.8 | 0.00 | 0.00 | 0.00 | 86 | 1014.4 |
| 20260901034627 | 26 | 337 | 0.0 | 1.6 | 0.00 | 0.00 | 0.00 | 86 | 1014.6 |
| 20260901034126 | 26 | 353 | 0.0 | 1.6 | 0.00 | 0.00 | 0.00 | 86 | 1014.5 |
| 20260901033621 | 26 | 277 | 3.2 | 3.2 | 0.00 | 0.00 | 0.00 | 86 | 1014.3 |
| 20260901033120 | 26 | 328 | 1.6 | 1.6 | 0.00 | 0.00 | 0.00 | 86 | 1014.4 |
| 20260901032619 | 26 | 314 | 3.2 | 3.2 | 0.00 | 0.00 | 0.00 | 86 | 1014.7 |
| 20260901032114 | 26 | 341 | 0.0 | 0.0 | 0.00 | 0.00 | 0.00 | 89 | 1014.6 |
| 20260901031610 | 26 | 325 | 1.6 | 1.6 | 0.00 | 0.00 | 0.00 | 89 | 1014.7 |
| 20260901031106 | 26 | 328 | 0.0 | 1.6 | 0.00 | 0.00 | 0.00 | 90 | 1014.8 |
| 20260901030605 | 26 | 4 | 0.0 | 1.6 | 0.00 | 0.00 | 0.00 | 90 | 1014.5 |
| 20260901030100 | 25 | 349 | 0.0 | 0.0 | 0.00 | 0.00 | 0.00 | 90 | 1014.5 |
| 20260901025559 | 26 | 349 | 1.6 | 1.6 | 0.00 | 0.00 | 0.00 | 90 | 1014.8 |
| 20260901025054 | 26 | 349 | 0.0 | 0.0 | 0.00 | 0.00 | 0.00 | 89 | 1014.6 |
| 20260901024549 | 26 | 348 | 0.0 | 0.0 | 0.00 | 0.00 | 0.00 | 89 | 1014.5 |
| 20260901024047 | 26 | 343 | 0.0 | 0.0 | 0.00 | 0.00 | 0.00 | 89 | 1014.6 |
| 20260901023546 | 26 | 343 | 0.0 | 0.0 | 0.00 | 0.00 | 0.00 | 89 | 1014.5 |
| 20260901023042 | 26 | 343 | 0.0 | 0.0 | 0.00 | 0.00 | 0.00 | 88 | 1014.6 |
| 20260901022537 | 26 | 343 | 0.0 | 1.6 | 0.00 | 0.00 | 0.00 | 87 | 1014.5 |
| 20260901022032 | 27 | 343 | 0.0 | 0.0 | 0.00 | 0.00 | 0.00 | 85 | 1014.3 |
| 20260901021528 | 27 | 344 | 0.0 | 0.0 | 0.00 | 0.00 | 0.00 | 84 | 1014.4 |
| 20260901021023 | 27 | 345 | 0.0 | 0.0 | 0.00 | 0.00 | 0.00 | 83 | 1014.5 |
| 20260901020518 | 27 | 338 | 0.0 | 1.6 | 0.00 | 0.00 | 0.00 | 83 | 1014.5 |
| 20260901020014 | 27 | 332 | 0.0 | 0.0 | 0.00 | 0.00 | 0.00 | 83 | 1014.5 |
| 20260901015509 | 27 | 333 | 1.6 | 1.6 | 0.00 | 0.00 | 0.00 | 82 | 1014.5 |
| 20260901015008 | 27 | 345 | 0.0 | 0.0 | 0.00 | 0.00 | 0.00 | 82 | 1014.5 |
| 20260901014504 | 27 | 327 | 1.6 | 1.6 | 0.00 | 0.00 | 0.00 | 82 | 1014.3 |
| 20260901014000 | 27 | 341 | 0.0 | 0.0 | 0.00 | 0.00 | 0.00 | 81 | 1014.5 |
| 20260901013455 | 28 | 339 | 0.0 | 0.0 | 0.00 | 0.00 | 0.00 | 81 | 1014.2 |
| 20260901012951 | 28 | 311 | 1.6 | 3.2 | 0.00 | 0.00 | 0.00 | 80 | 1014.0 |
| 20260901012450 | 28 | 297 | 1.6 | 3.2 | 0.00 | 0.00 | 0.00 | 79 | 1014.0 |
| 20260901011946 | 28 | 320 | 1.6 | 1.6 | 0.00 | 0.00 | 0.00 | 78 | 1014.0 |
| 20260901011442 | 28 | 331 | 1.6 | 1.6 | 0.00 | 0.00 | 0.00 | 78 | 1013.7 |
| 20260901010940 | 28 | 292 | 1.6 | 3.2 | 0.00 | 0.00 | 0.00 | 78 | 1013.9 |
| 20260901010435 | 28 | 333 | 1.6 | 1.6 | 0.00 | 0.00 | 0.00 | 77 | 1014.0 |
| 20260901005934 | 28 | 337 | 1.6 | 3.2 | 0.00 | 0.00 | 0.00 | 77 | 1013.7 |
| 20260901005429 | 29 | 343 | 0.0 | 1.6 | 0.00 | 0.00 | 0.00 | 76 | 1014.0 |
| 20260901004924 | 29 | 332 | 0.0 | 0.0 | 0.00 | 0.00 | 0.00 | 76 | 1013.7 |
| 20260901004424 | 29 | 319 | 1.6 | 1.6 | 0.00 | 0.00 | 0.00 | 75 | 1014.1 |
| 20260901003919 | 29 | 293 | 3.2 | 4.8 | 0.00 | 0.00 | 0.00 | 75 | 1013.7 |
| 20260901003414 | 29 | 298 | 3.2 | 4.8 | 0.00 | 0.00 | 0.00 | 75 | 1013.9 |
| 20260901002912 | 30 | 334 | 3.2 | 3.2 | 0.00 | 0.00 | 0.00 | 74 | 1013.7 |
| 20260901002407 | 30 | 243 | 3.2 | 4.8 | 0.00 | 0.00 | 0.00 | 74 | 1013.6 |
| 20260901001907 | 30 | 237 | 4.8 | 6.4 | 0.00 | 0.00 | 0.00 | 73 | 1013.4 |
| 20260901001402 | 30 | 258 | 3.2 | 3.2 | 0.00 | 0.00 | 0.00 | 73 | 1013.5 |
| 20260901000857 | 30 | 299 | 0.0 | 1.6 | 0.00 | 0.00 | 0.00 | 72 | 1013.5 |
| 20260901000352 | 30 | 248 | 6.4 | 9.7 | 0.00 | 0.00 | 0.00 | 72 | 1013.4 |
| 20260831235851 | 30 | 333 | 3.2 | 3.2 | 0.00 | 0.00 | 0.00 | 71 | 1013.5 |
| 20260831235347 | 30 | 257 | 9.7 | 11.3 | 0.00 | 0.00 | 0.00 | 71 | 1013.7 |
| 20260831234842 | 30 | 249 | 4.8 | 6.4 | 0.00 | 0.00 | 0.00 | 70 | 1013.6 |
| 20260831234342 | 31 | 281 | 4.8 | 4.8 | 0.00 | 0.00 | 0.00 | 70 | 1013.5 |
| 20260831233837 | 31 | 253 | 6.4 | 6.4 | 0.00 | 0.00 | 0.00 | 69 | 1013.6 |
| 20260831233332 | 31 | 278 | 4.8 | 4.8 | 0.00 | 0.00 | 0.00 | 69 | 1013.4 |
| 20260831232828 | 31 | 265 | 6.4 | 11.3 | 0.00 | 0.00 | 0.00 | 69 | 1013.5 |
| 20260831232324 | 31 | 311 | 6.4 | 12.9 | 0.00 | 0.00 | 0.00 | 69 | 1013.4 |
| 20260831231820 | 31 | 253 | 6.4 | 6.4 | 0.00 | 0.00 | 0.00 | 68 | 1013.5 |
| 20260831231316 | 31 | 219 | 6.4 | 9.7 | 0.00 | 0.00 | 0.00 | 68 | 1013.4 |
| 20260831230811 | 31 | 295 | 6.4 | 6.4 | 0.00 | 0.00 | 0.00 | 70 | 1013.3 |
| 20260831230306 | 31 | 284 | 6.4 | 9.7 | 0.00 | 0.00 | 0.00 | 69 | 1013.3 |
| 20260831225805 | 31 | 313 | 4.8 | 6.4 | 0.00 | 0.00 | 0.00 | 68 | 1013.2 |
| 20260831225301 | 32 | 329 | 4.8 | 4.8 | 0.00 | 0.00 | 0.00 | 67 | 1013.2 |
| 20260831224756 | 32 | 278 | 4.8 | 6.4 | 0.00 | 0.00 | 0.00 | 65 | 1013.2 |
| 20260831224251 | 32 | 273 | 3.2 | 4.8 | 0.00 | 0.00 | 0.00 | 65 | 1012.9 |
| 20260831223746 | 32 | 191 | 9.7 | 11.3 | 0.00 | 0.00 | 0.00 | 65 | 1013.0 |
| 20260831223242 | 32 | 212 | 6.4 | 6.4 | 0.00 | 0.00 | 0.00 | 64 | 1013.2 |
| 20260831222738 | 32 | 279 | 6.4 | 6.4 | 0.00 | 0.00 | 0.00 | 64 | 1013.1 |
| 20260831222234 | 32 | 258 | 6.4 | 6.4 | 0.00 | 0.00 | 0.00 | 65 | 1012.9 |
| 20260831221729 | 32 | 264 | 3.2 | 4.8 | 0.00 | 0.00 | 0.00 | 65 | 1012.9 |
| 20260831221224 | 32 | 304 | 3.2 | 6.4 | 0.00 | 0.00 | 0.00 | 64 | 1012.8 |
| 20260831220719 | 32 | 203 | 8.0 | 9.7 | 0.00 | 0.00 | 0.00 | 65 | 1012.7 |